Flag for China Weather past 2 weeks in Foochow, Fujian, China

Now
86 °F

Passing clouds.


Feels Like: 97 °F
Forecast: 75 / 94 °F
Wind: 6 mph from Southeast

Location: Fuzhou Airport

Current Time: Aug 31, 2014 at 7:08:11 PM

Latest Report: Aug 31, 2014 at 6:00 PM


Visibility: N/A

Pressure: 29.83 "Hg

Humidity: 75%

Dew point: 77 °F

Location of FoochowLocation

Historic Weather in Foochow — Graph

°F

Foochow temperature yesterday

Maximum temperature yesterday: 91 °F (at 11:00 AM)
Minimum temperature yesterday: 79 °F (at 6:00 AM)
Average temperature yesterday: 85 °F

Past Weeks' High & Low Weather Summary

 TemperatureHumidityPressure
High93 °F (Aug 28, 11:00 AM)94% (Aug 19, 5:00 AM)29.98 "Hg (Aug 19, 5:00 AM)
Low73 °F (Aug 20, 6:00 PM)56% (Aug 24, 1:00 PM)29.65 "Hg (Aug 17, 4:00 PM)
Average84 °F78%29.82 "Hg
* Reported Aug 16 6:00 PM — Aug 31 6:00 PM, Foochow, Weather by CustomWeather, © 2014

Note: Actual official high and low records may vary slightly from our data, if they occured in-between our weather recording intervals... More about our weather records

Advertising

Foochow weather history for previous 24 hours

 ConditionsComfort  
Time TempWeatherWind HumidityBarometerVisibility
6:00 PM
Aug 31
86 °FPassing clouds.6 mph75%29.83 "HgN/A
5:00 PM86 °FPassing clouds.6 mph70%29.80 "HgN/A
4:00 PM90 °FPassing clouds.10 mph63%29.80 "HgN/A
3:00 PM91 °FPassing clouds.8 mph59%29.80 "HgN/A
2:00 PM91 °FPassing clouds.8 mph59%29.80 "HgN/A
1:00 PM91 °FPassing clouds.8 mph63%29.83 "HgN/A
12:00 PM91 °FScattered clouds.8 mph59%29.86 "HgN/A
11:00 AM91 °FScattered clouds.8 mph63%29.86 "HgN/A
10:00 AM86 °FScattered clouds.3 mph70%29.86 "HgN/A
9:00 AM86 °FPassing clouds.1 mph70%29.86 "HgN/A
8:00 AM82 °FPassing clouds.3 mph79%29.86 "HgN/A
7:00 AM79 °FPartly sunny.3 mph84%29.83 "HgN/A
6:00 AM79 °FScattered clouds.3 mph84%29.83 "HgN/A
5:00 AM79 °FPassing clouds.6 mph84%29.80 "HgN/A
4:00 AM79 °FPassing clouds.3 mph84%29.80 "Hg6 mi
3:00 AM81 °FPassing clouds.3 mph79%29.83 "Hg6 mi
2:00 AM81 °FPassing clouds.1 mph79%29.83 "Hg5 mi
1:00 AM81 °FPassing clouds.1 mph84%29.83 "HgN/A
12:00 AM81 °FPassing clouds.3 mph84%29.86 "HgN/A
11:00 PM
Aug 30
82 °FPassing clouds.6 mph84%29.86 "HgN/A
10:00 PM82 °FPassing clouds.3 mph84%29.89 "HgN/A
9:00 PM84 °FPassing clouds.8 mph79%29.89 "HgN/A
8:00 PM84 °FPassing clouds.6 mph79%29.86 "HgN/A
7:00 PM84 °FPassing clouds.3 mph79%29.86 "HgN/A
Weather by CustomWeather, © 2014

See weather overviewHow to use our weather pages